Home   Weather   Dryden   Past weeks

Flag for Canada Past Weather in Dryden, Ontario, Canada — Yesterday and Last 2 Weeks

Now
75 °F

Sunny.


Feels Like: 77 °F
Forecast: N/A
Wind: 12 mph from Northwest

Location: Dryden Airport

Current Time: Aug 20, 2017 at 4:29:05 pm

Latest Report: Aug 20, 2017 at 3:00 pm


Visibility: 9 mi

Pressure: 29.86 "Hg

Humidity: 36%

Dew Point: 46 °F

Location of DrydenLocation

Past Weather in Dryden — Graph

°F

Dryden Temperature Yesterday

Maximum temperature yesterday: 82 °F (at 3:00 pm)
Minimum temperature yesterday: 57 °F (at 3:00 am)
Average temperature yesterday: 70 °F

High & Low Weather Summary for the Past Weeks

 TemperatureHumidityPressure
High82 °F (Aug 19, 3:00 pm)100% (Aug 6, 3:14 am)30.18 "Hg (Aug 6, 3:14 am)
Low50 °F (Aug 6, 5:24 am)28% (Aug 11, 6:00 pm)29.70 "Hg (Aug 20, 6:00 am)
Average65 °F70%29.99 "Hg
* Reported Aug 5 3:00 pm — Aug 20 3:00 pm, Dryden. Weather by CustomWeather, © 2017

Note: Actual official high and low records may vary slightly from our data, if they occured in-between our weather recording intervals... More about our weather records

Advertising

Dryden Weather History for the Previous 24 Hours

Scroll right to see more
 ConditionsComfort  
Time TempWeatherWind HumidityBarometerVisibility
3:00 pm
Sun, Aug 20
75 °FSunny.12 mph36%29.86 "Hg9 mi
2:00 pm75 °FSunny.14 mph36%29.85 "Hg9 mi
1:00 pm73 °FPassing clouds.15 mph41%29.85 "Hg9 mi
12:00 pm72 °FPassing clouds.16 mph47%29.83 "Hg9 mi
11:00 am72 °FScattered clouds.14 mph61%29.81 "Hg9 mi
6:00 am64 °FSunny.10 mph83%29.70 "Hg9 mi
5:00 am66 °FPassing clouds.12 mph78%29.71 "Hg9 mi
4:00 am66 °FClear.12 mph78%29.72 "Hg9 mi
3:00 am66 °FClear.10 mph78%29.74 "Hg9 mi
2:00 am66 °FPassing clouds.10 mph73%29.75 "Hg9 mi
1:00 am66 °FClear.9 mph73%29.76 "Hg9 mi
12:00 am68 °FClear.9 mph64%29.77 "Hg9 mi
11:00 pm
Sat, Aug 19
68 °FClear.10 mph64%29.77 "Hg9 mi
10:00 pm70 °FClear.9 mph57%29.78 "Hg9 mi
9:00 pm72 °FClear.8 mph53%29.78 "Hg9 mi
8:00 pm75 °FClear.7 mph47%29.77 "Hg9 mi
7:00 pm79 °FSunny.7 mph39%29.77 "Hg9 mi
6:00 pm81 °FSunny.12 mph34%29.77 "Hg9 mi
5:00 pm82 °FPassing clouds.14 mph32%29.77 "Hg9 mi
4:00 pm81 °FScattered clouds.12 mph37%29.78 "Hg9 mi
Weather by CustomWeather, © 2017

See weather overviewHow to use our weather pages